EW4258 Weather Reports


Display with metric or nautical units.
time (UTC)temp
F
wind
direction
speed
MPH
gust
MPH
rain 1hr
in
rain 24hr
in
rain mn
in
humidity
%
barometer
mb
20260906163111 78 247 3.0 3.0 0.00 0.00 0.00 40 1023.1
20260906162111 78 360 3.0 3.0 0.00 0.00 0.00 39 1023.1
20260906161111 78 337 3.0 6.0 0.00 0.00 0.00 39 1023.1
20260906160111 79 360 3.0 3.0 0.00 0.00 0.00 38 1023.1
20260906154111 79 315 4.0 5.0 0.00 0.00 0.00 36 1023.2
20260906153110 80 360 3.0 9.0 0.00 0.00 0.00 36 1023.2
20260906152112 80 292 3.0 2.0 0.00 0.00 0.00 35 1023.1
20260906151110 80 360 3.0 5.0 0.00 0.00 0.00 36 1023.1
20260906150110 80 337 3.0 3.0 0.00 0.00 0.00 36 1023.4
20260906144111 80 315 2.0 3.0 0.00 0.00 0.00 35 1023.4
20260906143115 80 360 2.0 4.0 0.00 0.00 0.00 35 1023.4
20260906142115 80 135 1.0 1.0 0.00 0.00 0.00 36 1023.6
20260906141114 80 270 3.0 5.0 0.00 0.00 0.00 36 1023.6
20260906140115 80 315 4.0 3.0 0.00 0.00 0.00 36 1023.7
20260906134116 80 247 4.0 2.0 0.00 0.00 0.00 36 1023.7
20260906133114 80 292 4.0 4.0 0.00 0.00 0.00 34 1023.7
20260906132114 79 247 3.0 4.0 0.00 0.00 0.00 34 1023.9
20260906131116 79 292 4.0 2.0 0.00 0.00 0.00 32 1023.9
20260906130114 79 225 4.0 7.0 0.00 0.00 0.00 36 1024.1
20260906125114 79 315 4.0 5.0 0.00 0.00 0.00 37 1024.1
20260906124114 78 315 3.0 8.0 0.00 0.00 0.00 37 1024.0
20260906123114 78 292 3.0 3.0 0.00 0.00 0.00 39 1024.0
20260906122114 78 337 4.0 2.0 0.00 0.00 0.00 40 1024.2
20260906120114 77 247 4.0 5.0 0.00 0.00 0.00 41 1024.4
20260906115114 77 270 3.0 3.0 0.00 0.00 0.00 45 1024.4
20260906114113 76 22 2.0 7.0 0.00 0.00 0.00 46 1024.6
20260906113113 76 337 1.0 2.0 0.00 0.00 0.00 46 1024.6
20260906112113 76 337 3.0 1.0 0.00 0.00 0.00 48 1024.5
20260906111113 76 292 2.0 3.0 0.00 0.00 0.00 47 1024.5
20260906110113 75 292 1.0 4.0 0.00 0.00 0.00 48 1024.7
20260906105114 75 247 2.0 3.0 0.00 0.00 0.00 51 1024.7
20260906103113 74 157 2.0 3.0 0.00 0.00 0.00 56 1024.9
20260906102113 73 247 1.0 2.0 0.00 0.00 0.00 57 1025.2
20260906101113 72 135 1.0 2.0 0.00 0.00 0.00 57 1025.2
20260906100113 72 315 1.0 0.0 0.00 0.00 0.00 58 1025.4
20260906095113 72 292 2.0 1.0 0.00 0.00 0.00 60 1025.4
20260906094112 71 247 1.0 3.0 0.00 0.00 0.00 60 1025.4
20260906093113 70 247 1.0 0.0 0.00 0.00 0.00 61 1025.4
20260906092114 70 135 1.0 1.0 0.00 0.00 0.00 62 1026.1
20260906091112 69 135 0.0 1.0 0.00 0.00 0.00 62 1026.1
20260906090112 68 270 1.0 0.0 0.00 0.00 0.00 63 1026.2
20260906085112 68 157 0.0 1.0 0.00 0.00 0.00 65 1026.2
20260906084112 67 90 1.0 0.0 0.00 0.00 0.00 66 1026.2
20260906082112 66 225 1.0 0.0 0.00 0.00 0.00 71 1026.6
20260906081112 66 90 0.0 1.0 0.00 0.00 0.00 72 1026.6
20260906080112 65 202 1.0 1.0 0.00 0.00 0.00 73 1026.1
20260906075112 65 180 1.0 0.0 0.00 0.00 0.00 74 1026.1
20260906074111 64 22 0.0 2.0 0.00 0.00 0.00 75 1026.6
20260906073112 64 135 0.0 0.0 0.00 0.00 0.00 75 1026.6
20260906071112 63 67 0.0 1.0 0.00 0.00 0.00 77 1026.8
20260906070111 62 225 0.0 0.0 0.00 0.00 0.00 78 1026.8
20260906065111 61 202 0.0 0.0 0.00 0.00 0.00 78 1026.8
20260906063111 60 337 0.0 0.0 0.00 0.00 0.00 78 1026.4
20260906062111 60 45 0.0 0.0 0.00 0.00 0.00 78 1025.8
20260906061111 60 180 0.0 0.0 0.00 0.00 0.00 79 1025.8
20260906060111 59 225 0.0 0.0 0.00 0.00 0.00 79 1025.9
20260906055111 58 292 0.0 0.0 0.00 0.00 0.00 79 1025.9
20260906053111 58 247 0.0 0.0 0.00 0.00 0.00 80 1025.6
20260906052111 58 90 0.0 0.0 0.00 0.00 0.00 79 1025.9
20260906050110 58 202 0.0 0.0 0.00 0.00 0.00 79 1026.0
20260906045110 57 247 0.0 0.0 0.00 0.00 0.00 79 1026.0
20260906043110 58 90 0.0 0.0 0.00 0.00 0.00 79 1025.6
20260906042110 58 67 0.0 0.0 0.00 0.00 0.00 79 1025.6
20260906041110 58 157 0.0 0.0 0.00 0.00 0.00 79 1025.6
20260906040110 58 135 0.0 0.0 0.00 0.00 0.00 79 1025.9
20260906034113 58 180 0.0 0.0 0.00 0.00 0.00 79 1026.0
20260906033112 58 90 0.0 1.0 0.00 0.00 0.00 79 1026.0
20260906032112 58 157 0.0 0.0 0.00 0.00 0.00 79 1025.2
20260906031112 58 22 0.0 0.0 0.00 0.00 0.00 78 1025.2
20260906030113 58 225 0.0 0.0 0.00 0.00 0.00 79 1025.1
20260906025113 58 67 0.0 0.0 0.00 0.00 0.00 78 1025.1
20260906024112 58 112 1.0 1.0 0.00 0.00 0.00 78 1025.2
20260906023112 58 180 0.0 0.0 0.00 0.00 0.00 78 1025.2
20260906022112 59 180 0.0 0.0 0.00 0.00 0.00 78 1025.2
20260906020111 59 90 0.0 0.0 0.00 0.00 0.00 78 1025.2
20260906015111 59 202 0.0 0.0 0.00 0.00 0.00 78 1025.2
20260906013111 59 202 0.0 0.0 0.00 0.00 0.00 78 1025.1
20260906012111 60 22 0.0 0.0 0.00 0.00 0.00 78 1025.1
20260906011111 60 202 0.0 0.0 0.00 0.00 0.00 77 1025.1
20260906010111 60 157 0.0 0.0 0.00 0.00 0.00 77 1025.1
20260906005111 60 202 0.0 0.0 0.00 0.00 0.00 77 1025.1
20260906004111 60 90 0.0 1.0 0.00 0.00 0.00 77 1025.0
20260906003110 60 225 0.0 0.0 0.00 0.00 0.00 78 1025.0
20260906002110 60 157 1.0 0.0 0.00 0.00 0.00 76 1025.2
20260906000112 60 202 0.0 0.0 0.00 0.00 0.00 77 1025.2
20260905235110 60 360 0.0 0.0 0.00 0.00 0.00 77 1025.2
20260905234110 60 90 0.0 0.0 0.00 0.00 0.00 76 1025.2
20260905233110 60 202 0.0 0.0 0.00 0.00 0.00 76 1025.2
20260905232110 60 202 0.0 0.0 0.00 0.00 0.00 76 1025.1
20260905231110 60 202 0.0 0.0 0.00 0.00 0.00 76 1025.1
20260905230110 60 67 0.0 0.0 0.00 0.00 0.00 76 1025.1
20260905225110 60 157 0.0 0.0 0.00 0.00 0.00 76 1025.1
20260905224110 60 157 0.0 0.0 0.00 0.00 0.00 75 1025.1
20260905223110 60 22 0.0 0.0 0.00 0.00 0.00 75 1025.1
20260905222110 60 135 0.0 0.0 0.00 0.00 0.00 75 1024.9
20260905221110 60 225 0.0 0.0 0.00 0.00 0.00 76 1024.9
20260905215115 61 67 0.0 0.0 0.00 0.00 0.00 75 1024.8
20260905214114 61 157 0.0 0.0 0.00 0.00 0.00 75 1024.8
20260905213114 62 157 0.0 0.0 0.00 0.00 0.00 74 1024.8
20260905212114 62 90 0.0 1.0 0.00 0.00 0.00 75 1024.7
20260905211114 62 157 0.0 0.0 0.00 0.00 0.00 75 1024.7
20260905210114 62 202 0.0 0.0 0.00 0.00 0.00 74 1024.6
20260905204114 63 225 0.0 0.0 0.00 0.00 0.00 74 1024.7
20260905203114 63 112 0.0 0.0 0.00 0.00 0.00 73 1024.7
20260905202114 63 225 0.0 0.0 0.00 0.00 0.00 73 1024.6
20260905201114 63 67 0.0 1.0 0.00 0.00 0.00 72 1024.6
20260905200114 64 45 0.0 0.0 0.00 0.00 0.00 72 1024.6
20260905194113 64 112 0.0 0.0 0.00 0.00 0.00 72 1024.4
20260905193114 64 90 0.0 0.0 0.00 0.00 0.00 72 1024.4
20260905192113 64 45 0.0 0.0 0.00 0.00 0.00 70 1024.4
20260905191113 64 202 0.0 0.0 0.00 0.00 0.00 70 1024.4
20260905190113 64 202 0.0 0.0 0.00 0.00 0.00 70 1023.9
20260905185113 64 135 0.0 0.0 0.00 0.00 0.00 69 1023.9
20260905184113 65 202 1.0 0.0 0.00 0.00 0.00 69 1023.8
20260905183114 65 157 0.0 2.0 0.00 0.00 0.00 68 1023.8
20260905181113 65 247 0.0 0.0 0.00 0.00 0.00 68 1023.6
20260905175112 66 202 0.0 0.0 0.00 0.00 0.00 65 1023.5
20260905174112 66 135 0.0 0.0 0.00 0.00 0.00 64 1023.4
20260905173113 66 202 0.0 0.0 0.00 0.00 0.00 63 1023.4
20260905172113 67 202 0.0 0.0 0.00 0.00 0.00 62 1023.6
20260905171112 67 202 0.0 0.0 0.00 0.00 0.00 62 1023.6
20260905170112 67 45 0.0 0.0 0.00 0.00 0.00 61 1023.4
20260905165112 68 247 1.0 0.0 0.00 0.00 0.00 62 1023.4